OBJECT AV (43801 NORAD) Tracking and Keplerian Element Data

This shows tracking and keplerian element data for the satellite.

Feedback or suggestion? Click here.




ElementValue
Catalog43801
NameOBJECT AV
Epoch Orbit1407
Epoch Day66.98114696
Epoch Year2019
RAAN140.1292
Inclination97.7509
Eccentricity0.0013096
Argument of Perigee307.2319
Mean Anonmoly52.7706
Mean Motion14.95174979
Decay Rate-7E-07
L11 43801U 18099AV 19066.98114696 -.00000070 00000-0 -10962-5 0 9991
L22 43801 97.7509 140.1292 0013096 307.2319 52.7706 14.95174979 14073

Live tracking and technical data element details for OBJECT AV (NORAD 43801). OBJECT AV can be tracked NOW for your location showing map with azimuth and elevation plus other details from your city location.

Track the satellite on the map from your city or location and see movement details for azimuth, elevation, latitude, longitude, range, height, and movement on the map or in text.







IsCatalogInMostPopularTable: catalog: 43801, numindb: 119
Update: records affected: 1



GetName: 43801 OBJECT AV

Hit Count: updated at: Tue, 17 Sep 2019 21:45:20 GMT